This is the latest recevied weather packets stored in our database for station/object K6HFP. If no packets are shown the sender has not sent any weather packets the latest 10 day(s).
| Time | Temp. | Humidity | Pressure | Rain* | Wind** | Luminosity | Snow |
|---|---|---|---|---|---|---|---|
| 1777950795 | 10.56° C | 91% | 1013.3 hPa | 0 mm | - | 0 W/m² | - |
| 1777950493 | 10.56° C | 91% | 1012.7 hPa | 1.78 mm | - | 0 W/m² | - |
| 1777950189 | 10.56° C | 91% | 1013 hPa | 1.78 mm | - | 0 W/m² | - |
| 1777949884 | 10.56° C | 91% | 1012.8 hPa | 0 mm | - | 1 W/m² | - |
| 1777949582 | 10.56° C | 91% | 1012.9 hPa | 0 mm | - | 1 W/m² | - |
| 1777949281 | 10.56° C | 90% | 1013.6 hPa | 0 mm | - | 1 W/m² | - |
| 1777948978 | 10.56° C | 90% | 1013.4 hPa | 0 mm | - | 1 W/m² | - |
| 1777948675 | 11.11° C | 90% | 1013.6 hPa | 0 mm | - | 1 W/m² | - |
| 1777948372 | 10.56° C | 90% | 1013.1 hPa | 0 mm | - | 2 W/m² | - |
| 1777948069 | 10.56° C | 89% | 1013.1 hPa | 0 mm | - | 2 W/m² | - |
| 1777947766 | 10.56° C | 89% | 1013.7 hPa | 0 mm | - | 2 W/m² | - |
| 1777947463 | 10.56° C | 89% | 1013.3 hPa | 0 mm | - | 3 W/m² | - |
| 1777947160 | 10.56° C | 89% | 1013.6 hPa | 0 mm | - | 3 W/m² | - |
| 1777946855 | 10.56° C | 89% | 1013.3 hPa | 0 mm | - | 3 W/m² | - |
| 1777946551 | 10.56° C | 89% | 1013.1 hPa | 0 mm | - | 4 W/m² | - |
| 1777946248 | 10.56° C | 90% | 1012.9 hPa | 0 mm | - | 6 W/m² | - |
| 1777945945 | 10.56° C | 91% | 1012.7 hPa | 0 mm | - | 12 W/m² | - |
| 1777945642 | 10.56° C | 92% | 1012.6 hPa | 0 mm | - | 13 W/m² | - |
| 1777945340 | 10.56° C | 93% | 1012.7 hPa | 0 mm | - | 12 W/m² | - |
| 1777945036 | 10.56° C | 93% | 1012.7 hPa | 0 mm | - | 13 W/m² | - |
| 1777944733 | 10.56° C | 93% | 1012.5 hPa | 0 mm | - | 13 W/m² | - |
| 1777944432 | 10.56° C | 93% | 1012.7 hPa | 1.27 mm | - | 15 W/m² | - |
| 1777944129 | 10.56° C | 94% | 1012.6 hPa | 1.27 mm | - | 18 W/m² | - |
| 1777943824 | 10.56° C | 94% | 1012.5 hPa | 0 mm | - | 16 W/m² | - |
| 1777943522 | 10.56° C | 94% | 1012.9 hPa | 0 mm | - | 18 W/m² | - |
* Rain latest hour (hover to see other rain measurements)
** Current wind speed in m/s (hover to see current wind gust speed)